Date,TemperatureHighF,TemperatureAvgF,TemperatureLowF,DewpointHighF,DewpointAvgF,DewpointLowF,HumidityHigh,HumidityAvg,HumidityLow,PressureMaxIn,PressureMinIn,WindSpeedMaxMPH,WindSpeedAvgMPH,GustSpeedMaxMPH,PrecipitationSumIn
2013-4-1,64,44,24,32,23,15,74,47,25,30.05,29.95,12,2,12,0.00
2013-4-2,72,48,26,34,24,15,67,42,19,29.99,29.78,6,2,7,0.00
2013-4-3,70,54,41,33,27,20,55,37,22,30.00,29.79,13,3,13,0.00
2013-4-4,60,47,33,34,29,22,69,52,37,29.99,29.70,8,2,8,0.00
2013-4-5,62,52,42,44,35,28,70,53,36,29.72,29.60,11,3,11,0.00
2013-4-6,69,50,36,39,32,26,70,54,24,29.76,29.64,13,3,13,0.00
2013-4-7,66,50,36,43,37,32,89,64,34,29.71,29.45,11,2,11,0.00
2013-4-8,36,26,22,33,21,18,91,84,77,30.18,29.62,13,3,13,0.00
2013-4-9,35,26,20,22,17,14,85,70,54,30.30,30.18,8,1,8,0.00
2013-4-10,53,34,17,33,22,11,78,63,44,30.18,29.69,11,2,11,0.00
2013-4-11,59,47,37,36,30,24,69,54,33,29.82,29.66,17,5,17,0.00
2013-4-12,56,44,36,34,28,23,78,54,31,29.95,29.61,11,3,11,0.00
2013-4-13,56,41,38,38,31,22,84,68,46,29.61,29.30,12,3,12,0.00
2013-4-14,39,34,25,31,23,19,85,65,47,29.86,29.50,14,5,14,0.00
2013-4-15,37,30,21,25,21,16,81,70,55,30.02,29.85,9,1,9,0.00
2013-4-16,35,28,23,24,21,17,82,74,60,30.16,29.95,7,1,7,0.00
2013-4-17,38,28,19,29,21,13,84,76,57,30.17,30.13,13,1,13,0.00
2013-4-18,56,39,20,31,22,15,85,56,25,30.13,29.94,12,3,12,0.00
2013-4-19,58,48,35,39,30,23,78,51,32,29.95,29.70,11,2,11,0.00
2013-4-20,64,50,36,42,35,25,83,59,23,29.86,29.69,13,3,13,0.00
2013-4-21,47,35,29,35,29,25,89,79,56,30.12,29.85,10,2,10,0.00
2013-4-22,39,32,26,31,24,19,89,74,52,30.31,30.12,7,1,7,0.00
2013-4-23,54,36,21,30,21,14,77,58,22,30.24,29.96,13,3,13,0.00
2013-4-24,61,46,34,32,26,20,81,51,27,30.10,29.78,13,3,13,0.00
2013-4-25,71,54,37,32,25,21,57,36,17,29.86,29.69,15,3,15,0.00
2013-4-26,78,58,39,36,30,24,60,37,18,30.01,29.86,13,3,13,0.00
2013-4-27,80,63,45,36,28,21,52,30,12,29.96,29.70,16,3,16,0.00
2013-4-28,71,62,52,40,33,24,48,34,24,29.89,29.65,10,2,10,0.00
2013-4-29,68,52,45,41,32,17,62,48,24,29.67,29.40,15,4,15,0.00
2013-4-30,49,42,32,33,20,16,65,42,28,30.13,29.66,15,4,16,0.00